Location: San Francisco
(37.7750°N, 122.4180°W)
Time: 16:19:30
(UTC-07:00)

Daily predictions for brighter satellites

Satellite Brightness Start Highest point End
(mag) Time Altitude Azimuth Time Altitude Azimuth Time Altitude Azimuth
Cosmos 1346 Rocket 3.3 20:16:01 10° SSW 20:20:02 68° W 20:24:08 10° N
Cosmos 2221 2.6 20:16:34 10° S 20:20:50 83° W 20:25:07 10° N
Cosmos 1300 2.8 20:19:10 10° S 20:22:59 81° W 20:26:49 10° N
Cosmos 44 Rocket 3.3 20:18:22 10° SSW 20:23:06 90° NNW 20:27:59 10° NNE
Thor Agena Rocket 3.7 20:21:58 10° NNE 20:27:07 54° E 20:32:15 10° S
GPS 2-05 Rocket1 4.0 20:24:47 10° W 20:27:49 30° SSW 20:30:49 10° SE
HJ-1C 3.6 20:26:28 10° S 20:29:48 74° W 20:33:09 10° NNW
Cosmos 2154 Rocket 4.2 20:26:38 10° SSE 20:32:41 53° E 20:38:42 10° NNE
Cosmos 1805 Rocket 3.6 20:28:28 10° N 20:32:47 60° E 20:37:03 10° SSE
FREGAT/IRIS 4.2 20:30:50 10° SSW 20:33:35 36° W 20:36:22 10° NNW
Resurs 01 Rocket 2.3 20:30:41 10° SE 20:34:44 36° ENE 20:38:48 10° N
CZ-2D R/B 3.2 20:32:28 10° SSE 20:36:16 88° WSW 20:40:05 10° NNW
Cosmos 2184 Rocket 4.2 20:30:13 10° S 20:36:22 79° W 20:42:33 10° N
Cosmos 1328 Rocket 4.5 20:34:25 10° SSE 20:38:08 28° E 20:41:54 10° NNE
Cosmos 2360 Rocket 3.4 20:33:06 10° SW 20:38:29 46° WNW 20:43:54 10° N
Cosmos 2333 Rocket 2.5 20:39:28 10° S 20:44:50 45° ESE 20:50:12 10° NE
Cosmos 1455 2.8 20:43:48 10° SSE 20:47:17 35° E 20:50:49 10° NNE
Spot 2 Rocket 4.0 20:43:54 12° SE 20:48:19 41° ENE 20:53:05 10° N
COSMOS 2428 2.7 20:44:17 10° SSW 20:50:01 88° ESE 20:55:47 10° NNE
NOSS 2-1 (C) 3.6 20:49:14 10° SW 20:52:47 63° NW 20:56:38 10° NNE
Cosmos 2341 Rocket 4.2 20:46:56 10° SSE 20:53:03 52° E 20:59:10 10° NNE
Cosmos 2333 4.3 20:47:34 10° SSW 20:53:14 83° WNW 20:58:53 10° NNE
ERS-2 2.3 20:49:45 10° S 20:53:23 71° WSW 20:57:04 10° NNW
NOSS 2-1 (D) 3.7 20:50:13 10° SW 20:53:47 60° NW 20:57:37 10° NNE
Cosmos 1892 2.8 20:51:02 10° N 20:54:51 54° E 20:57:54 15° SSE
Meteor 2-15 4.4 20:51:27 10° N 20:57:36 85° E 21:03:43 10° S
Cosmos 1408 4.2 20:56:57 10° NNE 20:59:33 18° ENE 20:59:42 18° ENE
Cosmos 1844 Rocket 2.7 20:53:59 10° NNW 20:59:42 78° ENE 21:04:30 15° SSE
USA 186 1.1 20:58:21 20° S 20:59:42 65° W 21:01:56 10° NNW
Cosmos 1844 3.8 20:54:36 10° NNW 21:00:14 61° ENE 21:04:26 18° SE
ATLAS 2AS CENTAUR R/B 3.4 20:53:18 10° NNW 21:00:52 46° NE 21:05:45 20° ESE
Cosmos 962 Rocket 4.4 20:55:12 10° S 21:01:11 62° E 21:07:16 10° NNE
ATLAS CENTAUR R/B 1.2 20:59:58 10° SSW 21:03:28 48° ESE 21:07:06 10° NE
Cosmos 2237 Rocket 2.6 21:01:14 10° S 21:06:23 38° ESE 21:11:33 10° NE
Cosmos 2219 Rocket 2.1 21:01:29 10° SSW 21:07:09 85° ESE 21:12:50 10° NNE
Cosmos 1295 Rocket 4.5 21:06:10 10° S 21:12:27 72° E 21:18:46 10° N
Resurs 1-3 3.6 21:08:41 12° S 21:12:45 81° WSW 21:17:10 10° NNW
Cosmos 1666 Rocket 3.7 21:08:40 10° N 21:13:09 77° W 21:17:27 11° S
YAOGAN 6 3.2 21:10:37 11° S 21:14:02 56° W 21:17:37 10° NNW
Cosmos 2278 Rocket 3.0 21:11:53 10° N 21:17:06 36° ENE 21:19:15 27° ESE
NOSS 0 Rocket 3.9 21:12:18 10° S 21:18:21 64° ESE 21:24:29 10° NNE
Cosmos 1933 Rocket 4.1 21:15:03 10° N 21:19:11 39° ENE 21:20:08 34° ESE
H-2A R/B 3.1 21:19:45 24° E 21:20:43 25° ENE 21:24:46 10° NNE
OAO 2 Rocket 3.6 21:15:46 10° W 21:20:51 56° S 21:22:53 33° SE
NOAA 11 4.1 21:17:06 20° SSE 21:20:57 73° ENE 21:26:28 10° N
Timation 1 Rocket 4.4 21:18:16 10° NNW 21:24:15 82° WSW 21:28:15 22° SSE
SL-8 Rocket 4.0 21:19:08 10° S 21:25:19 61° E 21:31:30 10° NNE
Sich 1 4.0 21:23:48 10° NNW 21:27:53 44° W 21:31:55 10° SSW
Cosmos 1151 Rocket 2.8 21:26:57 27° S 21:29:09 69° E 21:33:24 10° NNE
ERS-1 Rocket 3.9 21:30:18 28° E 21:30:55 29° ENE 21:35:11 10° N
Cosmos 1939 Rocket 4.1 21:27:54 11° SSW 21:31:23 38° W 21:35:02 10° NNW
Cosmos 220 Rocket 3.9 21:27:12 10° NNW 21:31:32 71° ENE 21:32:38 47° SE
Cosmos 1371 Rocket 4.3 21:30:20 35° SE 21:31:45 42° ESE 21:36:46 10° NNE
NOSS 3-3 (A) 4.5 21:30:08 10° SW 21:36:03 61° NW 21:42:33 10° NNE
NOSS 3-3 (C) 4.4 21:30:14 10° SW 21:36:08 62° NW 21:42:39 10° NNE
Cosmos 1825 2.5 21:34:48 10° N 21:38:10 49° ENE 21:38:10 49° ENE
ATLAS 2A CENTAUR R/B 4.3 21:24:13 10° SW 21:39:21 32° S 21:42:28 28° SE
Cosmos 1869 3.4 21:45:43 57° ENE 21:45:43 57° ENE 21:49:17 10° NNE
USA 267 3.3 21:39:40 10° NE 21:46:01 51° SE 21:52:18 10° SSW
Cosmos 1633 Rocket 4.4 21:42:52 10° NNW 21:46:52 37° W 21:50:06 14° SSW
Cosmos 2228 Rocket 3.4 21:46:50 20° SSW 21:49:47 63° W 21:54:09 10° N
Cosmos 2098 Rocket 3.1 21:52:09 64° SE 21:52:32 68° E 21:56:40 10° NNE
Cosmos 2056 Rocket 3.6 21:53:18 54° ESE 21:53:26 54° ESE 21:58:42 10° NNE
Cosmos 1515 Rocket 4.2 21:51:24 18° SSW 21:54:35 56° W 21:58:59 10° N
SL-16 R/B 3.1 21:56:50 31° ENE 21:56:50 31° ENE 22:00:18 10° NE
Meteor 2-3 Rocket 4.4 21:50:03 10° NNW 21:55:28 51° W 21:59:18 19° SSW
SL-8 R/B 3.7 21:50:50 10° WSW 21:55:37 79° NNW 21:57:47 33° NE
Cosmos 864 Rocket 4.3 21:54:52 34° S 21:57:44 79° E 22:03:52 10° N
Helios 1A 4.2 22:02:58 31° NE 22:02:58 31° NE 22:05:42 10° N
ARGOS 3.0 22:07:34 62° S 22:08:31 86° WSW 22:13:55 10° NNW
SL-08 RB Rocket 3.7 22:09:11 68° NNE 22:09:11 68° NNE 22:13:14 10° N
Cosmos 1624 Rocket 3.8 22:10:32 79° SSE 22:10:48 83° ESE 22:16:00 10° NNE
Resurs 01 Rocket 4.1 22:08:11 10° SW 22:11:17 19° W 22:14:24 10° NW
GEOS 3 Rocket 3.6 22:07:22 10° NNE 22:12:44 84° NW 22:17:59 10° SW
MetOp-B 4.0 22:14:35 71° S 22:15:11 85° WSW 22:20:34 10° NNW
Cosmos 1190 Rocket 4.3 22:12:16 10° N 22:16:58 52° NE 22:16:58 52° NE
Cosmos 2344 3.7 22:20:44 48° E 22:20:44 48° E 22:27:35 10° NE
Cosmos 2297 4.1 22:21:47 10° NNW 22:26:51 51° NE 22:26:51 51° NE
Cosmos 2333 Rocket 4.4 22:24:43 10° WSW 22:29:17 25° WNW 22:33:51 10° N
Cosmos 1727 Rocket 4.0 22:27:33 10° N 22:33:44 75° W 22:34:28 67° SW
Meteor 2-10 Rocket 4.2 22:33:22 45° SW 22:34:52 59° WNW 22:40:37 10° N
Cosmos 1821 Rocket 4.4 22:37:41 50° NE 22:37:41 50° NE 22:42:43 10° NNE
Cosmos 2369 Rocket 4.4 22:34:30 10° NNE 22:37:01 14° NE 22:37:01 14° NE
Terra 3.5 22:39:40 26° NNE 22:39:40 26° NNE 22:42:05 10° N
DMSP B5D2-2 4.4 22:35:41 10° NNE 22:39:55 59° N 22:39:55 59° N
ATLAS CENTAUR R/B 4.4 22:40:52 10° WNW 22:42:44 13° NW 22:44:39 10° NNW
SPOT 5 3.9 22:49:18 40° NNW 22:49:18 40° NNW 22:52:14 10° NNW
Cosmos 2237 Rocket 4.0 22:45:44 10° WSW 22:50:29 28° WNW 22:55:17 10° N
SPOT 1/Viking Rocket 4.1 22:52:37 54° NNW 22:52:37 54° NNW 22:56:39 10° NNW
Lacrosse 5 4.4 22:49:15 10° N 22:51:28 13° NNE 22:52:35 12° NE
ATLAS 2AS CENTAUR R/B 3.7 22:44:42 10° NW 22:51:42 39° WSW 22:53:12 35° SW
H-2A R/B 3.3 23:00:22 33° W 23:00:22 33° W 23:04:31 10° NNW
Cosmos 2278 Rocket 3.6 22:56:11 10° NW 23:01:01 29° WSW 23:01:07 29° WSW
CZ-4C R/B 4.5 23:11:58 14° NE 23:11:58 14° NE 23:12:42 10° NE
ATLAS 5 CENTAUR R/B 4.2 23:08:31 10° N 23:12:44 20° NE 23:12:44 20° NE
NOSS 3-4 (A) 4.0 23:15:13 10° NW 23:21:37 69° WNW 23:21:37 69° WNW
NOSS 3-4 (C) 4.0 23:15:19 10° NW 23:21:43 69° WNW 23:21:43 69° WNW
USA 267 4.1 23:22:46 10° NE 23:28:55 46° NW 23:35:05 10° WSW
SL-16 R/B 3.9 23:38:36 27° WNW 23:39:15 28° WNW 23:44:04 10° N
